TimeEDT,TemperatureF,Dew PointF,Humidity,Sea Level PressureIn,VisibilityMPH,Wind Direction,Wind SpeedMPH,Gust SpeedMPH,PrecipitationIn,Events,Conditions,WindDirDegrees,DateUTC
12:53 AM,52.0,48.9,89,30.15,10.0,Calm,Calm,-,N/A,,Clear,0,2013-05-07 04:53:00
1:53 AM,50.0,48.0,93,30.14,10.0,Calm,Calm,-,N/A,,Clear,0,2013-05-07 05:53:00
2:53 AM,48.0,46.0,93,30.14,9.0,Calm,Calm,-,N/A,,Clear,0,2013-05-07 06:53:00
4:07 AM,46.4,44.6,93,30.15,9.0,Calm,Calm,-,N/A,,Clear,0,2013-05-07 08:07:00
4:53 AM,45.0,43.0,93,30.13,8.0,Calm,Calm,-,N/A,,Clear,0,2013-05-07 08:53:00
5:53 AM,44.1,43.0,96,30.13,7.0,Calm,Calm,-,N/A,,Clear,0,2013-05-07 09:53:00
6:53 AM,46.9,45.0,93,30.14,8.0,Calm,Calm,-,N/A,,Clear,0,2013-05-07 10:53:00
7:53 AM,53.1,48.9,86,30.15,10.0,Calm,Calm,-,N/A,,Clear,0,2013-05-07 11:53:00
8:53 AM,60.1,51.1,72,30.15,10.0,Calm,Calm,-,N/A,,Clear,0,2013-05-07 12:53:00
9:53 AM,64.9,48.9,56,30.15,10.0,Calm,Calm,-,N/A,,Clear,0,2013-05-07 13:53:00
10:53 AM,69.1,50.0,51,30.14,10.0,NW,3.5,-,N/A,,Clear,320,2013-05-07 14:53:00
11:53 AM,73.0,50.0,44,30.12,10.0,Variable,4.6,-,N/A,,Clear,0,2013-05-07 15:53:00
12:53 PM,75.0,48.0,38,30.10,10.0,Variable,4.6,-,N/A,,Partly Cloudy,0,2013-05-07 16:53:00
1:53 PM,77.0,48.0,36,30.08,10.0,South,6.9,-,N/A,,Clear,170,2013-05-07 17:53:00
2:53 PM,77.0,46.9,34,30.06,10.0,Calm,Calm,-,N/A,,Partly Cloudy,0,2013-05-07 18:53:00
3:53 PM,77.0,48.9,37,30.05,10.0,SE,9.2,-,N/A,,Scattered Clouds,140,2013-05-07 19:53:00
4:53 PM,75.9,52.0,43,30.05,10.0,Variable,6.9,17.3,N/A,,Mostly Cloudy,0,2013-05-07 20:53:00
5:53 PM,75.0,52.0,44,30.05,10.0,South,8.1,-,N/A,,Clear,170,2013-05-07 21:53:00
6:53 PM,73.9,52.0,46,30.06,10.0,SSE,9.2,-,N/A,,Clear,150,2013-05-07 22:53:00
7:53 PM,70.0,54.0,57,30.08,10.0,SSE,4.6,-,N/A,,Clear,150,2013-05-07 23:53:00
8:53 PM,66.9,54.0,63,30.09,10.0,Calm,Calm,-,N/A,,Clear,0,2013-05-08 00:53:00
9:53 PM,62.1,55.0,78,30.11,10.0,Calm,Calm,-,N/A,,Clear,0,2013-05-08 01:53:00
10:53 PM,62.1,55.0,78,30.12,10.0,Calm,Calm,-,N/A,,Clear,0,2013-05-08 02:53:00
11:53 PM,59.0,55.0,87,30.12,10.0,Calm,Calm,-,N/A,,Clear,0,2013-05-08 03:53:00